[[{"header":{"parameterUnit":"m.s-1","parameterCategory":1,"la1":30.2991,"la2":30.254,"lo1":-89.0895,"lo2":-89.0444,"dy":0.0017,"dx":0.0017,"nx":28,"ny":28,"refTime":"2024-06-22T09:00:00:Z","depth":0,"parameterNumber":2,"parameterNumberName":"U-component_of_WINDS"},"data":[0,0,0,0,0,0,0,0,0,0,0,0,0,0,0,0,0,0,0,0,0,0,0,0,0,0,0,0,0,0,0,0,0,0,0,0,0,0,0,0,0,0,0,0,0,0,0,0,0,0,0,0,0,0,0,0,0,0,-1.9493,-1.9492,0,-1.9394,-1.9393,-1.9392,-1.9357,-1.9358,-1.9358,-1.9358,-1.9257,-1.9254,-1.9251,0,0,0,0,0,0,0,0,0,0,0,0,0,-1.9653,-1.965,-1.9493,-1.9492,-1.949,-1.9394,-1.9393,-1.9391,-1.9357,-1.9358,-1.9358,-1.9359,-1.9258,-1.9254,-1.9251,0,0,0,0,0,0,0,0,0,0,0,0,0,-1.9572,-1.9649,-1.9493,-1.9462,-1.9458,-1.9394,-1.9393,-1.9391,-1.9357,-1.9358,-1.9358,-1.9359,-1.9259,-1.9255,-1.925,-1.9211,0,0,-1.9236,-1.9234,0,0,0,0,0,0,0,0,-1.9577,-1.9566,-1.9467,-1.9464,-1.9459,-1.9389,-1.9412,-1.9331,-1.9357,-1.9395,-1.9358,-1.9359,-1.93,-1.9292,-1.9272,-1.9206,-1.9201,-1.9236,-1.9233,-1.9231,-1.923,0,0,0,0,0,0,0,-1.9582,-1.957,-1.9454,-1.9466,-1.9461,-1.9453,-1.9442,-1.9397,-1.9346,-1.9392,-1.9389,-1.9378,-1.9298,-1.9277,-1.927,-1.92,-1.9236,-1.9232,-1.9229,-1.9227,-1.9099,-1.9098,0,0,0,0,0,0,-1.9593,-1.9575,-1.9457,-1.9451,-1.9521,-1.945,-1.9437,-1.9411,-1.9346,-1.9337,-1.9378,-1.9377,-1.9285,-1.9275,-1.9266,-1.9217,-1.9231,-1.9227,-1.9224,-1.9099,-1.9098,-1.9098,0,0,0,0,0,0,-1.9597,-1.9583,-1.9461,-1.9512,-1.9496,-1.9446,-1.9417,-1.9408,-1.9387,-1.9335,-1.9326,-1.9365,-1.9285,-1.9273,-1.9225,-1.9213,-1.9225,-1.922,-1.91,-1.9099,-1.9098,-1.9117,0,0,0,0,0,0,-1.9601,-1.9584,-1.9568,-1.9512,-1.9493,-1.9421,-1.9416,-1.9406,-1.9379,-1.9377,-1.9321,-1.9313,-1.9284,-1.9232,-1.9221,-1.9207,-1.9217,-1.9101,-1.91,-1.9098,-1.9117,-1.9117,-1.9116,0,0,0,0,0,-1.9607,-1.9577,-1.9567,-1.9553,-1.9472,-1.942,-1.941,-1.9377,-1.9379,-1.9362,-1.933,-1.9314,-1.9216,-1.9228,-1.9214,-1.9199,-1.9102,-1.91,-1.9098,-1.9118,-1.9117,-1.9117,0,0,0,0,0,0,-1.9632,-1.9569,-1.9558,-1.9508,-1.947,-1.9414,-1.9393,-1.9378,-1.9338,-1.9338,-1.93,-1.9287,-1.9243,-1.9216,-1.923,-1.9159,-1.9158,-1.9154,-1.9177,-1.9176,-1.9176,-1.9183,-1.9213,0,0,0,0,0,-1.9632,-1.9594,-1.9542,-1.9503,-1.9485,-1.9442,-1.9418,-1.9397,-1.9356,-1.934,-1.9303,-1.9264,-1.9225,-1.9199,-1.916,-1.9114,-1.9102,-1.9097,-1.9097,-1.9097,-1.9093,-1.9069,-1.9066,-1.9093,-1.9093,-1.9093,0,0,-1.963,-1.9591,-1.957,-1.9507,-1.9475,-1.9438,-1.9429,-1.9389,-1.9362,-1.9334,-1.9287,-1.9259,-1.9213,-1.9167,-1.9145,-1.9143,-1.9084,-1.9095,-1.9095,-1.9091,-1.9067,-1.9064,-1.9062,-1.9092,-1.9092,-1.9092,0,0,-1.9609,-1.9576,-1.9541,-1.9509,-1.9461,-1.9434,-1.9426,-1.9373,-1.9354,-1.9307,-1.9286,-1.9253,-1.9185,-1.9154,-1.9129,-1.91,-1.9085,-1.9088,-1.9086,-1.9062,-1.906,-1.9058,-1.9049,-1.9045,-1.9085,-1.9085,-1.9085,0,-1.9613,-1.9556,-1.9524,-1.9487,-1.9461,-1.9435,-1.94,-1.9371,-1.9313,-1.9295,-1.9295,-1.9211,-1.9178,-1.9125,-1.9118,-1.9099,-1.9089,-1.9094,-1.9063,-1.9061,-1.9058,-1.9049,-1.9045,-1.9086,-1.9086,-1.9086,-1.9086,0,-1.9565,-1.9526,-1.9504,-1.9449,-1.942,-1.9384,-1.9348,-1.9323,-1.9305,-1.9279,-1.9232,-1.9192,-1.9145,-1.9131,-1.9113,-1.9076,-1.9077,-1.9071,-1.9069,-1.9057,-1.9048,-1.9044,-1.9087,-1.9087,-1.9087,-1.9086,0,0,-1.9553,-1.9484,-1.9476,-1.9452,-1.9399,-1.9369,-1.9333,-1.9287,-1.9267,-1.9229,-1.9198,-1.9143,-1.9138,-1.911,-1.9088,-1.9068,-1.9049,-1.9064,-1.9062,-1.9063,-1.9008,-1.9013,-1.9009,-1.904,-1.9039,-1.9038,-1.9012,0,-1.9525,-1.9459,-1.9431,-1.9378,-1.9343,-1.932,-1.9288,-1.9253,-1.9228,-1.9195,-1.9167,-1.9129,-1.9124,-1.9107,-1.9086,-1.9056,-1.9037,-1.9057,-1.9011,-1.901,-1.9023,-1.9004,-1.9008,-1.8985,-1.9008,-1.9007,-1.9006,0,-1.9483,-1.9445,-1.9389,-1.9343,-1.9327,-1.9299,-1.9257,-1.9226,-1.9186,-1.9169,-1.914,-1.912,-1.9083,-1.9086,-1.9034,-1.9049,-1.9029,-1.9011,-1.9009,-1.9003,-1.9007,-1.8997,-1.8976,-1.8973,-1.9,-1.9,-1.9001,0,-1.9481,-1.9417,-1.9375,-1.9355,-1.93,-1.9281,-1.9257,-1.9218,-1.9194,-1.9157,-1.9141,-1.9101,-1.9078,-1.9048,-1.9019,-1.9023,-1.8971,-1.8971,-1.8956,-1.8957,-1.8945,-1.8946,-1.8921,-1.8933,-1.8933,-1.8933,-1.8933,0,-1.9452,-1.9418,-1.9374,-1.9348,-1.9311,-1.928,-1.9244,-1.9219,-1.9185,-1.9155,-1.9133,-1.9105,-1.9068,-1.9036,-1.9013,-1.8975,-1.8965,-1.8951,-1.8945,-1.8952,-1.8954,-1.8938,-1.8939,-1.8932,-1.8932,-1.8933,-1.8933,0,-1.9442,-1.9411,-1.9364,-1.9317,-1.9304,-1.9279,-1.9238,-1.9213,-1.9189,-1.9151,-1.914,-1.9101,-1.9063,-1.9031,-1.898,-1.8965,-1.8925,-1.8919,-1.8939,-1.8936,-1.8923,-1.8925,-1.8886,-1.888,-1.8897,-1.8897,-1.8897,0,-1.9425,-1.9399,-1.935,-1.9328,-1.9305,-1.927,-1.9246,-1.9216,-1.9191,-1.9146,-1.9127,-1.9087,-1.9053,-1.8994,-1.8961,-1.8923,-1.8915,-1.8904,-1.8909,-1.8918,-1.8915,-1.8917,-1.8915,-1.8903,-1.8903,-1.8903,-1.8903,0,-1.9399,-1.9386,-1.9351,-1.9312,-1.9284,-1.9251,-1.9218,-1.9202,-1.9166,-1.914,-1.9101,-1.9075,-1.9025,-1.8986,-1.8945,-1.8921,-1.8907,-1.8903,-1.8897,-1.8904,-1.8917,-1.891,-1.8938,-1.8903,-1.8903,-1.8903,-1.8903,-1.8903,-1.9385,-1.9362,-1.9324,-1.9287,-1.926,-1.923,-1.9205,-1.9178,-1.9145,-1.9102,-1.9086,-1.9046,-1.901,-1.8954,-1.893,-1.8899,-1.8897,-1.889,-1.8888,-1.8886,-1.8887,-1.8923,-1.8892,-1.8892,-1.8892,-1.8892,-1.8892,0,-1.9358,-1.9333,-1.93,-1.9255,-1.9227,-1.9217,-1.9181,-1.9158,-1.9123,-1.9091,-1.9059,-1.9015,-1.8979,-1.8944,-1.8906,-1.8888,-1.8881,-1.8879,-1.888,-1.8875,-1.8891,-1.8899,-1.8886,-1.8886,-1.8886,-1.8886,-1.8886,-1.8886,-1.9341,-1.9301,-1.9284,-1.9231,-1.9207,-1.9168,-1.9149,-1.9122,-1.9096,-1.9048,-1.9018,-1.8996,-1.8964,-1.8924,-1.889,-1.8881,-1.8868,-1.8868,-1.8858,-1.8873,-1.8874,-1.8875,-1.8882,-1.8866,-1.8866,-1.8844,-1.8844,-1.8844]},{"header":{"parameterUnit":"m.s-1","parameterCategory":1,"la1":30.2991,"la2":30.254,"lo1":-89.0895,"lo2":-89.0444,"dy":0.0017,"dx":0.0017,"nx":28,"ny":28,"refTime":"2024-06-22T09:00:00:Z","depth":0,"parameterNumber":3,"parameterNumberName":"V-component_of_WINDS"},"data":[0,0,0,0,0,0,0,0,0,0,0,0,0,0,0,0,0,0,0,0,0,0,0,0,0,0,0,0,0,0,0,0,0,0,0,0,0,0,0,0,0,0,0,0,0,0,0,0,0,0,0,0,0,0,0,0,0,0,2.3329,2.3328,0,2.3304,2.3304,2.3304,2.3331,2.3332,2.3333,2.3334,2.3303,2.3302,2.33,0,0,0,0,0,0,0,0,0,0,0,0,0,2.3394,2.3393,2.3329,2.3328,2.3328,2.3304,2.3304,2.3304,2.3331,2.3332,2.3334,2.3335,2.3304,2.3302,2.33,0,0,0,0,0,0,0,0,0,0,0,0,0,2.3367,2.3392,2.3329,2.3339,2.334,2.3304,2.3304,2.3303,2.3331,2.3332,2.3334,2.3335,2.3305,2.3302,2.3299,2.3251,0,0,2.3291,2.329,0,0,0,0,0,0,0,0,2.3369,2.3365,2.3338,2.3338,2.3339,2.3323,2.3316,2.3286,2.333,2.3334,2.3334,2.3336,2.3308,2.3305,2.3297,2.3249,2.3248,2.3291,2.3289,2.3288,2.3287,0,0,0,0,0,0,0,2.337,2.3366,2.3319,2.3337,2.3338,2.3343,2.3341,2.331,2.3312,2.3334,2.3336,2.3333,2.3309,2.33,2.3296,2.3248,2.3291,2.3289,2.3287,2.3286,2.3158,2.3157,0,0,0,0,0,0,2.3372,2.3367,2.332,2.3318,2.3358,2.3341,2.3338,2.3326,2.3313,2.3312,2.3331,2.3334,2.3303,2.33,2.3295,2.3237,2.3288,2.3286,2.3284,2.316,2.3158,2.3156,0,0,0,0,0,0,2.3373,2.3367,2.3321,2.3343,2.3338,2.3338,2.3324,2.3325,2.3316,2.3311,2.3311,2.3322,2.3304,2.3299,2.3262,2.3236,2.3284,2.3282,2.3162,2.3159,2.3157,2.3119,0,0,0,0,0,0,2.3375,2.3368,2.335,2.3343,2.3336,2.3289,2.3322,2.3323,2.3312,2.3315,2.3302,2.3301,2.3305,2.3266,2.3259,2.3233,2.328,2.3164,2.3161,2.3158,2.3123,2.3116,2.311,0,0,0,0,0,2.3377,2.334,2.3349,2.3343,2.3315,2.3287,2.3284,2.329,2.3309,2.3291,2.3288,2.3302,2.3241,2.3262,2.3255,2.3227,2.3166,2.3162,2.3158,2.3126,2.3117,2.311,0,0,0,0,0,0,2.3342,2.3339,2.3349,2.3309,2.3298,2.3292,2.3269,2.3281,2.3264,2.3267,2.3275,2.3272,2.3232,2.3226,2.325,2.3179,2.3206,2.32,2.3184,2.3176,2.317,2.3171,2.3278,0,0,0,0,0,2.333,2.331,2.3307,2.3271,2.3266,2.3268,2.3257,2.3263,2.3252,2.3247,2.3241,2.3228,2.3206,2.3191,2.317,2.3123,2.312,2.3101,2.3094,2.3089,2.3083,2.3056,2.3048,2.3143,2.3143,2.3143,0,0,2.3304,2.33,2.3286,2.3264,2.3257,2.3234,2.3264,2.3239,2.3221,2.3242,2.3207,2.3203,2.3188,2.3146,2.3127,2.314,2.3057,2.3084,2.308,2.3077,2.3051,2.3042,2.3034,2.314,2.3141,2.3141,0,0,2.3244,2.324,2.3209,2.3202,2.3191,2.3193,2.3186,2.3178,2.3177,2.3142,2.3157,2.3136,2.3098,2.3087,2.3076,2.3014,2.3025,2.3007,2.2971,2.2945,2.2938,2.2931,2.2907,2.2899,2.3002,2.3002,2.3002,0,2.3212,2.318,2.3191,2.3165,2.3154,2.3175,2.3143,2.3135,2.3117,2.3108,2.3124,2.3077,2.3069,2.3023,2.3008,2.3,2.299,2.3007,2.2938,2.2932,2.2926,2.2903,2.2894,2.2999,2.3,2.3,2.3,0,2.314,2.3117,2.3094,2.3078,2.3065,2.3036,2.3041,2.3027,2.3035,2.3035,2.2998,2.299,2.2968,2.2958,2.2965,2.2913,2.2921,2.2938,2.2964,2.2914,2.2893,2.2884,2.2996,2.2997,2.2998,2.2998,0,0,2.3055,2.3048,2.3039,2.3032,2.3022,2.3004,2.2975,2.2956,2.2942,2.293,2.2904,2.2872,2.2888,2.2876,2.2882,2.2859,2.2808,2.2878,2.2878,2.2864,2.2749,2.2735,2.2725,2.2817,2.2815,2.2814,2.2749,0,2.2994,2.2946,2.2956,2.2908,2.2887,2.2907,2.2882,2.2872,2.2872,2.2852,2.2851,2.2828,2.2851,2.2843,2.2822,2.2819,2.2785,2.2824,2.2791,2.279,2.2792,2.2714,2.2699,2.2638,2.2741,2.274,2.2739,0,2.2916,2.2902,2.2853,2.2847,2.2838,2.2816,2.2798,2.278,2.2769,2.277,2.2758,2.2768,2.2738,2.2767,2.2724,2.2751,2.2738,2.2734,2.2732,2.2727,2.2759,2.2705,2.2619,2.2609,2.2726,2.2727,2.2728,0,2.2857,2.2826,2.2792,2.2786,2.2779,2.2762,2.2758,2.2749,2.2737,2.2721,2.2713,2.2693,2.2682,2.2666,2.267,2.2691,2.2626,2.2656,2.2624,2.2623,2.2607,2.2607,2.2516,2.2602,2.2603,2.2603,2.2603,0,2.2786,2.2754,2.2766,2.2745,2.2709,2.2721,2.2685,2.2683,2.2676,2.2653,2.267,2.2648,2.2656,2.2634,2.2638,2.2601,2.2596,2.2594,2.2595,2.2592,2.2591,2.2581,2.2585,2.26,2.2601,2.2601,2.2602,0,2.2712,2.2719,2.2684,2.2681,2.2679,2.2653,2.2649,2.2629,2.2631,2.2602,2.2596,2.2598,2.2573,2.2577,2.2549,2.2551,2.2504,2.2511,2.2508,2.2509,2.2476,2.2479,2.2373,2.2359,2.2457,2.2456,2.2455,0,2.2666,2.2642,2.2637,2.2625,2.262,2.2599,2.2587,2.2597,2.2583,2.257,2.255,2.2528,2.251,2.247,2.2467,2.2446,2.2451,2.2416,2.2447,2.2444,2.2448,2.2448,2.2445,2.2408,2.2407,2.2406,2.2406,0,2.2582,2.2586,2.2569,2.2553,2.2539,2.2526,2.2515,2.2503,2.2513,2.2496,2.2472,2.2459,2.2432,2.2408,2.2388,2.2382,2.2394,2.2396,2.2387,2.2382,2.2381,2.2379,2.2489,2.2398,2.2398,2.2399,2.2399,2.24,2.2519,2.2499,2.2492,2.2472,2.2466,2.2455,2.2435,2.2436,2.2417,2.2396,2.2404,2.2376,2.2365,2.234,2.2332,2.2309,2.2322,2.2309,2.2306,2.2302,2.2297,2.2387,2.2306,2.2306,2.2306,2.2307,2.2307,0,2.2434,2.2431,2.2413,2.2398,2.2382,2.2398,2.2387,2.2372,2.2348,2.2338,2.2321,2.2293,2.2271,2.2267,2.2246,2.2228,2.2233,2.2222,2.2222,2.222,2.2288,2.2297,2.2218,2.2218,2.2218,2.2218,2.2218,2.2218,2.2387,2.2354,2.2358,2.2321,2.2318,2.2292,2.2284,2.2274,2.2266,2.2235,2.2217,2.2216,2.2208,2.2186,2.2166,2.2166,2.2156,2.2142,2.2143,2.2206,2.2215,2.2223,2.2232,2.214,2.214,2.2076,2.2075,2.2075]}]]